Location: Newark
(25.3833°N, 97.4000°E)
Time: 12:28:16
(UTC+00:00)

STRAND 1 - Visible Passes

Search period start: 18 February 2020 00:00
Search period end: 28 February 2020 00:00
Orbit: 769 x 780 km, 98.5° (Epoch: 18 February)

Date Brightness Start Highest point End Pass type
(mag) Time Alt. Az. Time Alt. Az. Time Alt. Az.
18 Feb ? 12:50:41 10° NNE 12:55:51 83° ESE 13:00:59 10° S visible
19 Feb ? 12:17:10 10° NE 12:21:50 34° E 12:26:26 10° SSE visible
19 Feb ? 13:57:07 10° NNW 14:00:40 19° WNW 14:04:12 10° WSW visible
19 Feb ? 23:25:29 10° ESE 23:29:15 21° ENE 23:33:01 10° NNE visible
20 Feb ? 13:22:03 10° N 13:26:54 44° WNW 13:31:45 10° SW visible
21 Feb ? 12:47:51 10° NNE 12:53:00 78° ESE 12:58:07 10° S visible
22 Feb ? 12:14:24 10° NE 12:18:57 32° E 12:23:29 10° SSE visible
22 Feb ? 13:54:08 10° NNW 13:57:51 20° WNW 14:01:32 10° WSW visible
22 Feb ? 23:22:49 10° ESE 23:26:25 20° ENE 23:30:02 10° NNE visible
23 Feb ? 13:19:10 10° N 13:24:05 47° WNW 13:28:57 10° SSW visible
24 Feb ? 12:45:01 10° NNE 12:50:10 72° ESE 12:55:15 10° S visible
25 Feb ? 12:11:38 10° NE 12:16:06 30° E 12:20:31 10° SSE visible
25 Feb ? 13:51:10 10° NNW 13:55:01 22° WNW 13:58:51 10° WSW visible
25 Feb ? 23:20:09 10° ESE 23:23:36 18° ENE 23:27:02 10° NNE visible
26 Feb ? 13:16:16 10° N 13:21:14 51° WNW 13:26:10 10° SSW visible
27 Feb ? 12:42:11 10° NNE 12:47:18 67° ESE 12:52:22 10° S visible
